Weather reports worldwide

Advertisment
Coleshill, United Kingdom (3535): temperature & dewpoint: 17.09.2018 02:00:00 - 23.09.2018 02:00:00 (BST)Coleshill, United Kingdom (3535): temperature -20cm & temperature -100cm: 17.09.2018 02:00:00 - 23.09.2018 02:00:00 (BST)Coleshill, United Kingdom (3535): wind speed & gusts: 17.09.2018 02:00:00 - 23.09.2018 02:00:00 (BST)Coleshill, United Kingdom (3535): wind direction: 17.09.2018 02:00:00 - 23.09.2018 02:00:00 (BST)Coleshill, United Kingdom (3535): reduced air pressure: 17.09.2018 02:00:00 - 23.09.2018 02:00:00 (BST)Coleshill, United Kingdom (3535): visibility: 17.09.2018 02:00:00 - 23.09.2018 02:00:00 (BST)Coleshill, United Kingdom (3535): precipitation: 17.09.2018 02:00:00 - 23.09.2018 02:00:00 (BST)
Date & Time tt [°C] td [°C] tt -20cm [°C] tt -100cm [°C] ff [km/h] ff [kn] fx [km/h] fx [kn] dd ppp [hPa] vv [km] rr [mm]
23.09.2018 02:00:00 9,1 8,4 - - 5 3 - - N 1015,8 9 0,0
23.09.2018 01:00:00 9,0 8,4 - - 8 4 - - N 1015,7 10 0,0
23.09.2018 00:00:00 9,0 8,3 - - 5 3 - - N 1015,7 12 0,0
22.09.2018 23:00:00 9,1 8,3 - - 8 4 - - N 1015,4 18 0,0
22.09.2018 22:00:00 9,2 8,0 - - 5 3 - - NNE 1015,5 45 0,0
22.09.2018 21:00:00 9,2 8,2 - - 4 2 - - NNE 1015,5 35 0,0
22.09.2018 20:00:00 9,3 8,2 - - 5 3 - - ESE 1015,4 45 0,0
22.09.2018 19:00:00 9,8 8,2 - - 5 3 - - E 1015,4 14 0,0
22.09.2018 18:00:00 10,1 8,3 - - 5 3 - - E 1015,5 35 0,2
22.09.2018 17:00:00 10,3 8,3 - - 4 2 - - ESE 1016,2 30 0,2
22.09.2018 16:00:00 10,2 7,6 - - 9 5 - - SSE 1016,4 26 0,4
22.09.2018 15:00:00 10,3 8,0 - - 13 7 - - S 1017,0 22 0,4
22.09.2018 14:00:00 11,2 9,1 - - 5 3 - - SSW 1018,0 30 0,4
22.09.2018 13:00:00 11,5 8,8 - - 9 5 - - SW 1018,0 22 0,0
22.09.2018 12:00:00 11,7 8,1 - - 9 5 - - SW 1018,6 18 0,0
22.09.2018 11:00:00 11,5 8,2 - - 9 5 - - SSW 1018,7 27 0,0
22.09.2018 10:00:00 11,1 7,9 14,9 16,0 8 4 - - SSW 1018,1 30 0,0
22.09.2018 09:00:00 10,6 8,0 - - 9 5 - - SSW 1017,8 28 0,0
22.09.2018 08:00:00 9,7 7,8 - - 8 4 - - S 1018,2 30 0,0
22.09.2018 07:00:00 9,5 7,6 - - 8 4 - - S 1018,0 26 0,0
22.09.2018 06:00:00 9,5 7,7 - - 5 3 - - SSW 1017,7 25 0,0
22.09.2018 05:00:00 9,3 7,5 - - 4 2 - - SSW 1017,5 26 0,0
22.09.2018 04:00:00 9,4 7,4 - - 9 5 - - SSW 1017,5 35 0,0
22.09.2018 03:00:00 9,4 7,3 - - 11 6 - - S 1017,2 40 0,0
22.09.2018 02:00:00 9,4 7,3 - - 11 6 - - SSW 1016,9 35 0,0
22.09.2018 01:00:00 9,5 7,3 - - 8 4 - - S 1016,9 30 0,0
22.09.2018 00:00:00 10,3 7,5 - - 8 4 - - SW 1016,4 35 0,0
21.09.2018 23:00:00 11,2 7,8 - - 9 5 - - SW 1016,0 45 0,0
21.09.2018 22:00:00 10,9 7,8 - - 5 3 - - SSW 1015,4 40 0,0
21.09.2018 21:00:00 11,6 7,1 - - 15 8 - - WSW 1014,9 40 0,0
21.09.2018 20:00:00 11,8 5,4 - - 11 6 - - W 1013,9 40 0,0
21.09.2018 19:00:00 13,0 6,5 - - 16 9 52 28 W 1012,6 35 0,0
21.09.2018 18:00:00 14,1 5,9 - - 29 16 63 34 W 1011,3 45 0,0
21.09.2018 17:00:00 14,5 5,4 - - 31 17 63 34 W 1009,6 40 0,0
21.09.2018 16:00:00 15,2 6,3 - - 26 14 54 29 WSW 1008,6 35 0,0
21.09.2018 15:00:00 13,9 6,1 - - 28 15 55 30 W 1007,9 40 0,0
21.09.2018 14:00:00 14,1 7,9 - - 24 13 52 28 WSW 1006,5 27 0,0
21.09.2018 13:00:00 11,8 7,4 - - 18 10 50 27 SW 1006,2 35 0,2
21.09.2018 12:00:00 9,7 7,0 - - 16 9 - - WSW 1006,4 13 0,6
21.09.2018 11:00:00 11,6 5,4 - - 15 8 50 27 WSW 1005,5 35 0,0
21.09.2018 10:00:00 11,5 5,3 15,7 16,0 16 9 - - WSW 1004,7 40 0,0
21.09.2018 09:00:00 10,1 6,3 - - 13 7 - - SW 1004,1 30 0,0
21.09.2018 08:00:00 9,0 5,6 - - 15 8 - - SW 1003,3 35 0,0
21.09.2018 07:00:00 8,3 5,2 - - 13 7 - - WSW 1002,3 50 0,0
21.09.2018 06:00:00 9,1 5,9 - - 18 10 - - WSW 1000,9 50 0,0
21.09.2018 05:00:00 10,0 6,1 - - 24 13 50 27 W 999,7 35 0,0
21.09.2018 04:00:00 10,3 6,6 - - 21 11 50 27 W 997,9 50 0,0
21.09.2018 03:00:00 12,3 8,5 - - 24 13 50 27 WSW 995,6 45 0,0
21.09.2018 02:00:00 14,5 10,1 - - 22 12 57 31 SW 993,3 45 0,0
21.09.2018 01:00:00 16,2 14,0 - - 31 17 65 35 SSW 991,8 50 0,4
21.09.2018 00:00:00 16,8 15,8 - - 37 20 67 36 S 991,9 5 3,8
20.09.2018 23:00:00 16,7 15,7 - - 37 20 59 32 S 992,9 3,9 2,6
20.09.2018 22:00:00 17,4 15,4 - - 34 18 59 32 S 995,7 11 0,4
20.09.2018 21:00:00 16,9 15,3 - - 28 15 55 30 S 997,4 14 0,8
20.09.2018 20:00:00 18,1 14,5 - - 31 17 52 28 S 998,9 22 0,0
20.09.2018 19:00:00 18,4 14,6 - - 31 17 63 34 S 999,8 30 0,0
20.09.2018 18:00:00 18,2 15,1 - - 31 17 59 32 S 1000,8 27 0,0
20.09.2018 17:00:00 18,2 14,9 - - 31 17 57 31 S 1001,6 19 0,0
20.09.2018 16:00:00 18,2 15,0 - - 31 17 52 28 S 1002,6 20 0,0
20.09.2018 15:00:00 17,3 15,9 - - 29 16 54 29 S 1003,7 13 0,0
20.09.2018 14:00:00 15,1 14,9 - - 16 9 - - SSE 1005,3 4,9 0,6
20.09.2018 13:00:00 13,5 13,2 - - 9 5 - - ESE 1006,9 3,8 4,4
20.09.2018 12:00:00 13,0 12,5 - - 4 2 - - SSE 1008,9 2,1 1,6
20.09.2018 11:00:00 12,9 12,5 - - 9 5 - - SE 1009,6 15 1,2
20.09.2018 10:00:00 12,3 11,8 16,2 16,2 5 3 - - SSE 1010,6 13 0,0
20.09.2018 09:00:00 11,8 11,6 - - 5 3 - - SSE 1010,7 30 0,0
20.09.2018 08:00:00 11,1 10,9 - - 4 2 - - SSE 1010,8 8 1,0
20.09.2018 07:00:00 10,9 10,6 - - 5 3 - - SSE 1010,7 4,7 2,4
20.09.2018 06:00:00 10,9 10,5 - - 5 3 - - SSE 1010,9 3,2 3,2
20.09.2018 05:00:00 10,9 10,5 - - 5 3 - - S 1011,5 4,2 0,6
20.09.2018 04:00:00 10,9 10,3 - - 5 3 - - S 1011,5 7 0,4
20.09.2018 03:00:00 11,1 10,2 - - 9 5 - - S 1012,0 9 1,4
20.09.2018 02:00:00 12,1 9,5 - - 8 4 - - S 1012,3 12 0,0
20.09.2018 01:00:00 12,3 8,9 - - 8 4 - - SSW 1012,3 22 0,0
20.09.2018 00:00:00 12,7 8,6 - - 11 6 - - SSW 1012,7 22 0,0
19.09.2018 23:00:00 12,5 8,2 - - 15 8 - - SSW 1012,6 19 0,2
19.09.2018 22:00:00 14,0 6,1 - - 11 6 - - SW 1012,4 25 0,0
19.09.2018 21:00:00 14,3 5,8 - - 13 7 - - SW 1012,3 22 0,0
19.09.2018 20:00:00 15,1 5,3 - - 13 7 - - WSW 1011,6 26 0,0
19.09.2018 19:00:00 15,9 4,6 - - 16 9 - - WSW 1010,7 35 0,0
19.09.2018 18:00:00 17,4 7,4 - - 16 9 52 28 WSW 1009,9 14 0,0
19.09.2018 17:00:00 18,3 12,2 - - 16 9 - - WSW 1008,6 13 0,0
19.09.2018 16:00:00 17,4 13,9 - - 21 11 72 39 WSW 1007,8 17 0,0
19.09.2018 15:00:00 20,1 12,7 - - 34 18 74 40 SSW 1006,2 35 0,0
19.09.2018 14:00:00 20,4 11,7 - - 39 21 70 38 SSW 1005,9 23 0,0
19.09.2018 13:00:00 21,2 11,0 - - 34 18 67 36 SSW 1005,2 19 0,0
19.09.2018 12:00:00 20,4 12,1 - - 34 18 68 37 SSW 1005,8 21 0,0
19.09.2018 11:00:00 19,4 12,6 - - 35 19 68 37 SSW 1006,4 25 0,0
19.09.2018 10:00:00 17,8 13,0 16,7 16,0 35 19 59 32 SSW 1006,7 18 0,0
19.09.2018 09:00:00 16,7 13,0 - - 28 15 50 27 S 1007,4 15 0,0
19.09.2018 08:00:00 16,2 12,9 - - 22 12 - - S 1007,6 12 0,0
19.09.2018 07:00:00 14,8 13,1 - - 15 8 - - S 1008,4 16 0,0
19.09.2018 06:00:00 14,7 13,1 - - 18 10 - - S 1008,3 27 0,0
19.09.2018 05:00:00 14,7 13,1 - - 13 7 - - S 1008,6 26 0,0
19.09.2018 04:00:00 15,4 13,6 - - 15 8 - - SSW 1009,0 23 0,0
19.09.2018 03:00:00 15,9 14,1 - - 18 10 - - SSW 1008,6 21 0,0
19.09.2018 02:00:00 16,4 13,9 - - 21 11 - - SSW 1008,8 40 0,0
19.09.2018 01:00:00 17,7 13,4 - - 26 14 48 26 S 1008,6 25 0,0
19.09.2018 00:00:00 17,6 13,6 - - 24 13 - - S 1008,5 28 0,0
18.09.2018 23:00:00 18,0 13,6 - - 26 14 48 26 SSW 1008,7 30 0,0
18.09.2018 22:00:00 18,0 13,8 - - 24 13 - - S 1008,3 23 0,0
18.09.2018 21:00:00 18,3 14,1 - - 22 12 - - S 1008,0 24 0,0
18.09.2018 20:00:00 18,3 14,1 - - 18 10 - - SSW 1008,1 28 0,0
18.09.2018 19:00:00 18,6 13,9 - - 26 14 - - S 1007,7 30 0,0
18.09.2018 18:00:00 19,6 13,8 - - 24 13 - - SSW 1007,6 25 0,0
18.09.2018 17:00:00 20,3 14,3 - - 26 14 - - SSW 1007,6 27 0,0
18.09.2018 16:00:00 19,4 14,3 - - 22 12 - - SSW 1007,4 24 0,0
18.09.2018 15:00:00 19,0 13,6 - - 24 13 - - SSW 1007,3 45 0,0
18.09.2018 14:00:00 20,2 12,7 - - 13 7 - - SW 1006,6 35 0,0
18.09.2018 13:00:00 19,6 11,8 - - 21 11 46 25 SW 1006,1 30 0,0
18.09.2018 12:00:00 19,6 12,2 - - 21 11 - - SW 1005,4 26 0,0
18.09.2018 11:00:00 18,5 13,9 - - 18 10 50 27 SSW 1004,5 40 0,0
18.09.2018 10:00:00 16,9 14,2 16,4 16,0 31 17 48 26 SSW 1003,1 45 0,0
18.09.2018 09:00:00 16,8 15,2 - - 24 13 57 31 SSW 1002,1 35 0,2
18.09.2018 08:00:00 17,3 15,1 - - 29 16 59 32 S 1000,6 7 0,0
18.09.2018 07:00:00 18,3 14,7 - - 34 18 55 30 S 999,6 45 0,0
18.09.2018 06:00:00 18,5 15,0 - - 29 16 52 28 S 999,3 40 0,0
18.09.2018 05:00:00 18,7 15,1 - - 26 14 - - S 999,7 35 0,0
18.09.2018 04:00:00 16,9 14,0 - - 16 9 - - SSE 1000,8 30 0,0
18.09.2018 03:00:00 15,9 12,4 - - 18 10 - - S 1002,1 40 0,0
18.09.2018 02:00:00 15,5 10,7 - - 16 9 - - SSE 1003,0 45 0,0
18.09.2018 01:00:00 15,0 9,7 - - 11 6 - - SSE 1003,8 45 0,0
18.09.2018 00:00:00 16,4 9,8 - - 15 8 - - SSE 1004,6 50 0,0
17.09.2018 23:00:00 16,9 10,0 - - 15 8 - - S 1005,5 50 0,0
17.09.2018 22:00:00 16,9 10,1 - - 13 7 - - S 1006,4 50 0,0
17.09.2018 21:00:00 17,7 10,0 - - 11 6 - - SSE 1007,2 50 0,0
17.09.2018 20:00:00 18,8 6,7 - - 13 7 - - S 1007,5 50 0,0
17.09.2018 19:00:00 20,6 7,4 - - 16 9 - - S 1007,5 50 0,0
17.09.2018 18:00:00 21,9 11,9 - - 18 10 - - S 1007,9 50 0,0
17.09.2018 17:00:00 22,2 15,2 - - 21 11 - - S 1008,6 45 0,0
17.09.2018 16:00:00 21,0 15,4 - - 22 12 - - S 1009,9 45 0,0
17.09.2018 15:00:00 20,1 15,6 - - 22 12 - - S 1011,0 45 0,0
17.09.2018 14:00:00 20,0 16,1 - - 22 12 - - S 1011,6 45 0,0
17.09.2018 13:00:00 20,4 17,0 - - 18 10 - - S 1012,2 35 0,0
17.09.2018 12:00:00 19,7 16,6 - - 21 11 - - S 1012,7 40 0,0
17.09.2018 11:00:00 19,3 17,2 - - 16 9 - - S 1013,0 45 0,0
17.09.2018 10:00:00 17,6 16,9 16,4 16,0 16 9 - - S 1013,7 17 0,0
17.09.2018 09:00:00 17,4 16,8 - - 16 9 - - S 1013,9 14 0,4
17.09.2018 08:00:00 17,3 16,7 - - 13 7 - - S 1013,9 5 0,0
17.09.2018 07:00:00 17,1 16,6 - - 16 9 - - S 1013,6 12 0,2
17.09.2018 06:00:00 16,8 16,5 - - 11 6 - - S 1014,0 3,4 0,2
17.09.2018 05:00:00 16,7 16,3 - - 8 4 - - S 1014,4 2,6 0,8
17.09.2018 04:00:00 17,0 16,4 - - 13 7 - - S 1014,6 7 0,2
17.09.2018 03:00:00 16,8 16,3 - - 11 6 - - S 1014,9 4,3 0,0
17.09.2018 02:00:00 17,1 15,9 - - 11 6 - - SSW 1015,2 15 0,0

tt = temperature
td = dewpoint
tt -20cm = temperature -20cm
tt -100cm = temperature -100cm
ff = wind speed
fx = gusts
dd = wind direction
ppp = reduced air pressure
vv = visibility
rr = precipitation

Next stations